Location: Falniów
(50.3639°N, 19.9642°E)
Time: 21:58:13
(UTC+00:00)

IGS 5A - Pass Details

Date: 18 January 2026
Orbit: 551 x 554 km, 97.4° (Epoch: 8 January)

Event Time Altitude Azimuth Distance (km) Brightness Sun altitude
Rises 04:11:03 0° 18° (NNE) 2,741 7.0 -21.9°
Reaches altitude 10° 04:13:16 10° 25° (NNE) 1,842 6.2 -21.5°
Maximum altitude 04:17:05 44° 98° (E) 771 4.5 -20.9°
Drops below altitude 10° 04:20:53 10° 172° (S) 1,827 6.2 -20.3°
Sets 04:23:04 0° 179° (S) 2,716 7.0 -20.0°
